Location: Montreal
(45.5000°N, 73.5833°W)
Time: 12:51:26
(UTC-04:00)

Tiangong 2 - Visible Passes

Search period start: 19 March 2019 00:00
Search period end: 29 March 2019 00:00
Orbit: 379 x 390 km, 42.8° (Epoch: 18 March)

Date Brightness Start Highest point End Pass type
(mag) Time Alt. Az. Time Alt. Az. Time Alt. Az.
19 Mar 2.1 05:04:58 39° SE 05:04:58 39° SE 05:07:20 10° ESE visible
20 Mar 2.0 05:40:31 28° SW 05:41:19 33° SSW 05:44:14 10° SE visible
21 Mar 3.4 04:43:55 19° SE 04:43:55 19° SE 04:44:59 10° ESE visible
21 Mar 3.0 06:16:09 10° WSW 06:18:14 17° SSW 06:20:22 10° SSE visible
22 Mar 2.7 05:19:39 22° S 05:19:39 22° S 05:21:36 10° SE visible
23 Mar 3.4 05:55:32 10° SW 05:55:45 11° SSW 05:56:27 10° SSW visible
